Location: Observatoire
(46.1952°N, 5.3391°E)
Time: 22:15:14
(UTC+01:00)

A-11 Canister half - Pass Details

Date: 18 February 2026
Orbit: 1525 x 1683 km, 47.3° (Epoch: 9 March)

Event Time Altitude Azimuth Distance (km) Brightness Sun altitude
Rises 18:02:19 0° 247° (WSW) 4,714 14.4 0.2°
Reaches altitude 10° 18:05:23 10° 246° (WSW) 3,717 13.2 -0.3°
Maximum altitude 18:14:45 82° 161° (SSE) 1,542 9.1 -1.8°
Drops below altitude 10° 18:24:04 10° 75° (ENE) 3,698 10.3 -3.4°
Enters shadow 18:25:48 - 75° (ENE) 4,263 10.6 -3.7°
Sets 18:27:06 0° 75° (ENE) 4,689 - -3.9°
